• In Deutschland
  • Länderverzeichnis
  • Für 7 Tage
  • Wassertemperatur
  • Satellitenkarten
  • Wetterkarte
  • Widgets
  • user-avatar
    Anmelden

    Stündliche Wetter Laryanovo

    Heute, 16 August, Donnerstag

    Zeit Temperatur Niederschläge Wind Luftdruck Luftfeuchtigkeit
    00:00 +18°C° 0 mm 2 m/S 744 mmHg 91%
    01:00 +18°C° 0 mm 2 m/S 745 mmHg 92%
    02:00 +17°C° 0 mm 2 m/S 745 mmHg 95%
    03:00 +17°C° 0,1 mm 2 m/S 745 mmHg 95%
    04:00 +18°C° 0,1 mm 1 m/S 745 mmHg 95%
    05:00 +16°C° 0,1 mm 1 m/S 745 mmHg 96%
    06:00 +19°C° 0,1 mm 1 m/S 745 mmHg 92%
    07:00 +20°C° 0,1 mm 1 m/S 746 mmHg 88%
    08:00 +20°C° 0,1 mm 2 m/S 746 mmHg 84%
    09:00 +21°C° 0,5 mm 2 m/S 746 mmHg 81%
    10:00 +23°C° 0,5 mm 2 m/S 746 mmHg 77%
    11:00 +24°C° 0,5 mm 2 m/S 746 mmHg 73%
    12:00 +25°C° 0,8 mm 2 m/S 746 mmHg 73%
    13:00 +25°C° 0,8 mm 2 m/S 746 mmHg 72%
    14:00 +25°C° 0,8 mm 2 m/S 746 mmHg 72%
    15:00 +25°C° 0,5 mm 2 m/S 747 mmHg 74%
    16:00 +24°C° 0,5 mm 2 m/S 747 mmHg 76%
    17:00 +24°C° 0,5 mm 2 m/S 747 mmHg 77%
    18:00 +23°C° 0,1 mm 2 m/S 747 mmHg 83%
    19:00 +20°C° 0,1 mm 2 m/S 747 mmHg 88%
    20:00 +19°C° 0,1 mm 2 m/S 747 mmHg 93%
    21:00 +18°C° 0 mm 2 m/S 747 mmHg 94%
    22:00 +18°C° 0 mm 2 m/S 747 mmHg 95%
    23:00 +17°C° 0 mm 2 m/S 747 mmHg 96%

    Morgen, 17 August, Freitag

    Zeit Temperatur Niederschläge Wind Luftdruck Luftfeuchtigkeit
    00:00 +17°C° 0 mm 2 m/S 748 mmHg 96%
    01:00 +17°C° 0 mm 2 m/S 748 mmHg 96%
    02:00 +16°C° 0 mm 2 m/S 748 mmHg 97%
    03:00 +16°C° 0 mm 2 m/S 748 mmHg 97%
    04:00 +16°C° 0 mm 2 m/S 748 mmHg 97%
    05:00 +16°C° 0 mm 2 m/S 748 mmHg 97%
    06:00 +17°C° 0 mm 3 m/S 748 mmHg 94%
    07:00 +18°C° 0 mm 3 m/S 749 mmHg 91%
    08:00 +19°C° 0 mm 3 m/S 749 mmHg 88%
    09:00 +21°C° 0 mm 3 m/S 749 mmHg 82%
    10:00 +22°C° 0 mm 3 m/S 749 mmHg 77%
    11:00 +25°C° 0 mm 4 m/S 749 mmHg 71%
    12:00 +25°C° 0,1 mm 4 m/S 748 mmHg 70%
    13:00 +26°C° 0,1 mm 4 m/S 748 mmHg 69%
    14:00 +26°C° 0,1 mm 4 m/S 748 mmHg 67%
    15:00 +26°C° 0,3 mm 4 m/S 748 mmHg 70%
    16:00 +25°C° 0,3 mm 3 m/S 748 mmHg 72%
    17:00 +25°C° 0,3 mm 3 m/S 748 mmHg 75%
    18:00 +22°C° 0,1 mm 3 m/S 748 mmHg 79%
    19:00 +21°C° 0,1 mm 3 m/S 748 mmHg 83%
    20:00 +19°C° 0,1 mm 3 m/S 748 mmHg 86%
    21:00 +19°C° 0 mm 3 m/S 748 mmHg 87%
    22:00 +18°C° 0 mm 3 m/S 748 mmHg 87%
    23:00 +17°C° 0 mm 3 m/S 748 mmHg 87%

    übermorgen, 18 August, Samstag

    Zeit Temperatur Niederschläge Wind Luftdruck Luftfeuchtigkeit
    00:00 +17°C° 0 mm 3 m/S 748 mmHg 88%
    01:00 +17°C° 0 mm 3 m/S 748 mmHg 89%
    02:00 +16°C° 0 mm 3 m/S 748 mmHg 90%
    03:00 +16°C° 0 mm 3 m/S 748 mmHg 91%
    04:00 +16°C° 0 mm 3 m/S 748 mmHg 91%
    05:00 +14°C° 0 mm 3 m/S 748 mmHg 92%
    06:00 +17°C° 0 mm 3 m/S 748 mmHg 88%
    07:00 +18°C° 0 mm 4 m/S 748 mmHg 84%
    08:00 +19°C° 0 mm 4 m/S 748 mmHg 80%
    09:00 +21°C° 0,1 mm 4 m/S 748 mmHg 77%
    10:00 +22°C° 0,1 mm 5 m/S 748 mmHg 73%
    11:00 +25°C° 0,1 mm 5 m/S 748 mmHg 69%
    12:00 +25°C° 0,3 mm 5 m/S 748 mmHg 68%
    13:00 +26°C° 0,3 mm 5 m/S 748 mmHg 67%
    14:00 +26°C° 0,3 mm 5 m/S 748 mmHg 65%
    15:00 +25°C° 0,7 mm 4 m/S 748 mmHg 70%
    16:00 +25°C° 0,7 mm 4 m/S 747 mmHg 74%
    17:00 +24°C° 0,7 mm 3 m/S 747 mmHg 79%
    18:00 +22°C° 0,4 mm 3 m/S 747 mmHg 82%
    19:00 +21°C° 0,4 mm 3 m/S 747 mmHg 85%
    20:00 +20°C° 0,4 mm 2 m/S 747 mmHg 89%
    21:00 +19°C° 0,1 mm 3 m/S 747 mmHg 90%
    22:00 +19°C° 0,1 mm 3 m/S 747 mmHg 91%
    23:00 +18°C° 0,1 mm 3 m/S 747 mmHg 92%

    19 August, Sonntag

    Zeit Temperatur Niederschläge Wind Luftdruck Luftfeuchtigkeit
    00:00 +18°C° 0 mm 3 m/S 747 mmHg 93%
    01:00 +18°C° 0 mm 3 m/S 747 mmHg 94%
    02:00 +17°C° 0 mm 3 m/S 747 mmHg 95%
    03:00 +17°C° 0 mm 3 m/S 747 mmHg 95%
    04:00 +17°C° 0 mm 2 m/S 747 mmHg 96%
    05:00 +17°C° 0 mm 2 m/S 747 mmHg 96%
    06:00 +18°C° 0 mm 2 m/S 747 mmHg 94%
    07:00 +19°C° 0 mm 3 m/S 747 mmHg 92%
    08:00 +20°C° 0 mm 3 m/S 747 mmHg 90%
    09:00 +21°C° 0,4 mm 3 m/S 747 mmHg 85%
    10:00 +22°C° 0,4 mm 3 m/S 747 mmHg 81%
    11:00 +25°C° 0,4 mm 3 m/S 747 mmHg 76%
    12:00 +25°C° 0,3 mm 3 m/S 747 mmHg 73%
    13:00 +26°C° 0,3 mm 3 m/S 747 mmHg 69%
    14:00 +26°C° 0,3 mm 3 m/S 746 mmHg 66%
    15:00 +26°C° 0,8 mm 3 m/S 746 mmHg 69%
    16:00 +26°C° 0,8 mm 2 m/S 746 mmHg 73%
    17:00 +25°C° 0,8 mm 2 m/S 746 mmHg 76%
    18:00 +24°C° 0,4 mm 2 m/S 746 mmHg 80%
    19:00 +21°C° 0,4 mm 2 m/S 746 mmHg 83%
    20:00 +21°C° 0,4 mm 1 m/S 746 mmHg 87%
    21:00 +20°C° 0 mm 1 m/S 746 mmHg 88%
    22:00 +20°C° 0 mm 1 m/S 746 mmHg 89%
    23:00 +19°C° 0 mm 1 m/S 746 mmHg 90%

    20 August, Montag

    Zeit Temperatur Niederschläge Wind Luftdruck Luftfeuchtigkeit
    00:00 +19°C° 0 mm 1 m/S 746 mmHg 91%
    01:00 +19°C° 0 mm 1 m/S 746 mmHg 92%
    02:00 +18°C° 0 mm 1 m/S 746 mmHg 93%
    03:00 +18°C° 0 mm 1 m/S 746 mmHg 93%
    04:00 +18°C° 0 mm 1 m/S 746 mmHg 94%
    05:00 +18°C° 0 mm 1 m/S 746 mmHg 94%
    06:00 +19°C° 0 mm 1 m/S 746 mmHg 91%
    07:00 +20°C° 0 mm 1 m/S 746 mmHg 89%
    08:00 +20°C° 0 mm 2 m/S 746 mmHg 86%
    09:00 +21°C° 0,1 mm 2 m/S 747 mmHg 80%
    10:00 +23°C° 0,1 mm 2 m/S 747 mmHg 75%
    11:00 +24°C° 0,1 mm 3 m/S 747 mmHg 70%
    12:00 +25°C° 0,1 mm 2 m/S 746 mmHg 67%
    13:00 +25°C° 0,1 mm 2 m/S 746 mmHg 64%
    14:00 +25°C° 0,1 mm 2 m/S 746 mmHg 61%
    15:00 +25°C° 0,1 mm 2 m/S 746 mmHg 66%
    16:00 +24°C° 0,1 mm 2 m/S 746 mmHg 70%
    17:00 +24°C° 0,1 mm 2 m/S 746 mmHg 74%
    18:00 +21°C° 0 mm 2 m/S 746 mmHg 78%
    19:00 +21°C° 0 mm 1 m/S 746 mmHg 83%
    20:00 +19°C° 0 mm 1 m/S 746 mmHg 87%
    21:00 +19°C° 0 mm 1 m/S 746 mmHg 88%
    22:00 +18°C° 0 mm 1 m/S 746 mmHg 89%
    23:00 +18°C° 0 mm 1 m/S 746 mmHg 91%

    21 August, Dienstag

    Zeit Temperatur Niederschläge Wind Luftdruck Luftfeuchtigkeit
    00:00 +16°C° 0 mm 1 m/S 746 mmHg 91%
    01:00 +16°C° 0 mm 1 m/S 746 mmHg 92%
    02:00 +16°C° 0 mm 1 m/S 746 mmHg 92%
    03:00 +15°C° 0 mm 1 m/S 746 mmHg 93%
    04:00 +15°C° 0 mm 1 m/S 746 mmHg 93%
    05:00 +15°C° 0 mm 1 m/S 746 mmHg 93%
    06:00 +17°C° 0 mm 2 m/S 746 mmHg 90%
    07:00 +18°C° 0 mm 2 m/S 746 mmHg 86%
    08:00 +20°C° 0 mm 2 m/S 746 mmHg 82%
    09:00 +21°C° 0 mm 3 m/S 746 mmHg 77%
    10:00 +22°C° 0 mm 3 m/S 746 mmHg 72%
    11:00 +25°C° 0 mm 4 m/S 746 mmHg 67%
    12:00 +25°C° 0,1 mm 4 m/S 746 mmHg 66%
    13:00 +26°C° 0,1 mm 4 m/S 746 mmHg 65%
    14:00 +27°C° 0,1 mm 5 m/S 745 mmHg 64%
    15:00 +26°C° 0,3 mm 4 m/S 745 mmHg 68%
    16:00 +26°C° 0,3 mm 3 m/S 745 mmHg 72%
    17:00 +25°C° 0,3 mm 3 m/S 745 mmHg 76%
    18:00 +24°C° 0,2 mm 3 m/S 745 mmHg 79%
    19:00 +22°C° 0,2 mm 3 m/S 745 mmHg 82%
    20:00 +20°C° 0,2 mm 3 m/S 745 mmHg 86%
    21:00 +20°C° 0 mm 3 m/S 745 mmHg 87%
    22:00 +19°C° 0 mm 2 m/S 745 mmHg 89%
    23:00 +19°C° 0 mm 2 m/S 745 mmHg 90%
    Mehr zeigen